Location: Rounton
(54.4000°N, 1.3500°W)
Time: 13:51:39
(UTC+00:00)

Transit 2A - Pass Details

Date: 30 November 2021
Orbit: 591 x 967 km, 66.7° (Epoch: 21 January)

Event Time Altitude Azimuth Distance (km) Brightness Sun altitude
Rises 04:21:41 0° 273° (W) 3,473 - -30.8°
Reaches altitude 10° 04:24:26 10° 284° (WNW) 2,587 - -30.4°
Maximum altitude 04:29:44 30° 345° (NNW) 1,627 - -29.7°
Exits shadow 04:30:20 30° 355° (N) 1,648 7.6 -29.6°
Drops below altitude 10° 04:35:17 10° 45° (NE) 2,710 9.4 -28.9°
Sets 04:38:15 0° 56° (NE) 3,665 10.3 -28.4°
